Theta_e
320 319 319 318 318 316 316 313 312 311 311 310 310 309 308 307 315 319 321 320 320 322 324 325 328 330 331 334 335 337 340 339 339 337 336 334 332 332 331 331 331 332 331
319 320 319 315 314 312 312 312 311 311 310 310 310 310 309 308 309 310 318 320 320 319 319 320 322 325 329 329 332 333 336 338 339 338 336 335 332 331 331 330 331 331 331
320 319 318 314 314 312 312 311 310 310 310 309 309 309 309 309 308 311 315 317 317 318 319 319 319 321 324 325 329 331 335 336 336 337 337 335 332 332 331 331 330 330 330
319 317 316 314 312 311 310 310 309 307 306 304 304 302 301 303 305 310 312 310 313 316 317 318 317 317 319 321 324 327 331 332 334 335 336 334 332 331 330 331 330 330 328
316 315 314 312 310 309 307 306 304 302 302 302 302 303 304 303 304 304 307 308 309 311 313 315 316 317 311 310 316 322 325 329 331 333 333 333 332 331 330 330 330 329 327
313 312 310 309 309 308 307 306 305 305 304 304 305 305 305 305 305 302 300 300 304 308 310 312 314 315 315 315 310 312 317 320 328 329 332 331 333 331 330 329 328 328 326
310 309 308 307 307 306 305 305 305 305 304 304 305 305 305 305 304 303 302 302 302 304 306 309 311 312 314 315 316 312 311 314 318 322 328 330 333 330 330 330 329 329 328
308 308 306 305 304 304 304 304 304 303 303 303 304 304 304 304 303 302 303 304 303 304 306 307 308 309 311 313 314 314 314 314 316 318 318 326 329 331 330 329 329 328 327
307 305 304 303 303 303 302 302 301 299 300 301 302 303 303 303 302 300 302 302 302 304 305 306 306 307 307 309 309 312 313 314 313 310 310 315 323 329 330 328 328 326 325
304 303 302 302 302 302 302 300 299 298 298 300 300 301 301 301 301 300 298 298 301 303 304 305 305 304 304 304 304 308 311 313 314 314 314 317 317 322 328 328 327 327 327
302 301 301 301 301 301 301 300 299 298 298 298 298 299 300 300 300 299 298 297 299 299 301 303 304 304 303 303 303 303 308 310 312 313 314 313 314 321 324 327 328 327 327
300 299 299 298 297 299 299 299 299 298 298 298 299 299 300 300 299 299 298 297 296 296 298 299 301 301 302 302 302 302 303 304 306 309 311 312 312 318 321 325 328 327 327
298 296 295 296 296 296 297 298 298 298 298 298 298 298 299 299 299 299 298 297 297 297 296 298 298 298 298 299 300 300 302 303 306 308 309 311 312 314 318 324 326 325 327
297 296 295 295 295 295 296 297 297 297 297 297 297 298 298 297 297 298 297 296 296 296 297 297 296 296 298 299 299 299 301 302 305 308 309 311 312 313 318 320 323 325 323
296 296 295 295 296 296 296 296 297 297 297 297 297 297 297 296 296 296 296 295 296 296 297 297 297 296 298 298 298 299 300 303 305 307 310 311 312 313 319 318 322 323 322
296 296 296 295 296 296 296 296 297 296 296 297 297 296 296 296 296 296 296 295 295 295 295 296 296 295 296 298 298 299 301 301 303 305 309 311 312 313 316 318 321 322 322
296 296 296 295 295 296 296 296 296 296 296 297 298 298 297 297 296 295 295 294 294 294 294 294 295 295 295 296 298 298 299 301 303 305 308 310 312 312 315 319 319 320 320
296 295 295 296 296 295 294 295 295 296 296 295 296 297 298 296 295 294 294 293 293 293 293 293 294 295 295 296 298 298 298 300 302 304 307 308 313 312 315 319 319 320 321
296 296 296 295 294 294 294 294 295 295 295 295 295 295 294 294 294 293 293 292 292 293 293 294 294 294 295 296 297 297 298 299 301 304 304 308 311 312 315 318 318 321 321
296 296 295 295 294 294 294 295 295 294 294 294 294 294 293 293 292 291 292 292 292 293 294 294 294 294 294 295 295 297 298 298 300 303 304 307 309 313 314 317 319 320 320
294 295 295 294 294 294 294 294 293 293 293 293 293 292 292 291 291 291 291 291 291 292 292 293 294 294 294 294 295 296 298 298 299 303 303 305 307 311 314 316 319 318 321
295 295 294 294 293 293 294 293 292 292 291 291 291 291 291 291 291 291 291 291 291 291 291 292 293 293 294 294 295 296 297 298 300 303 302 306 307 309 313 317 318 317 320
295 295 294 294 294 294 293 293 292 291 291 291 290 290 290 290 290 290 290 290 290 290 291 291 291 292 294 294 295 297 297 298 300 301 302 304 306 310 313 316 318 318 317
295 295 295 294 294 294 294 294 293 292 291 290 290 290 290 290 290 290 290 289 289 289 290 291 291 291 293 294 295 297 297 299 301 301 302 305 308 310 313 315 318 316 319
295 295 295 294 294 294 295 295 294 292 290 289 289 288 289 289 289 290 290 290 290 290 290 290 291 291 292 294 295 296 297 299 300 302 304 306 309 311 313 316 317 317 317
295 295 295 295 295 296 295 294 293 290 289 288 288 288 288 289 289 289 290 290 290 290 290 290 291 291 293 294 295 296 297 299 300 302 304 308 312 313 316 317 317 317 318
Wind_Speed
5 5 4 3 5 9 10 11 12 14 16 17 17 18 16 15 15 14 14 13 11 10 9 9 11 11 11 13 17 17 18 20 21 17 13 16 16 15 20 18 18 17 14
4 1 2 6 6 8 11 14 16 19 22 24 23 22 21 18 19 17 15 15 13 12 12 11 10 11 11 12 15 18 17 17 19 19 18 21 19 20 20 19 17 16 14
5 3 3 6 7 10 13 16 19 23 27 28 27 27 25 23 23 21 15 16 14 13 12 12 11 10 12 9 14 15 17 16 17 16 19 23 22 21 22 21 20 16 14
8 6 6 8 11 14 17 21 24 26 28 27 26 25 25 23 25 22 23 23 17 15 14 15 13 11 11 11 10 15 17 18 17 15 15 19 19 21 20 21 21 20 14
7 6 7 10 13 16 19 22 23 23 22 23 23 22 20 21 17 23 31 30 27 22 18 16 15 16 14 14 12 10 15 20 18 17 16 18 20 19 22 24 23 19 16
6 5 6 9 12 15 19 19 18 18 18 18 18 17 18 17 20 28 29 30 32 30 25 19 18 18 15 17 16 15 15 15 18 21 17 19 20 20 20 21 22 21 12
4 6 9 12 14 15 16 17 17 18 18 19 19 17 18 18 22 27 27 27 26 25 24 21 21 18 18 16 16 14 16 19 17 18 22 21 16 20 20 20 24 22 11
6 9 12 14 15 16 16 16 17 18 18 18 18 18 19 19 25 27 26 26 25 22 21 20 20 21 20 20 16 15 14 14 14 15 17 22 23 13 20 15 17 17 18
10 13 14 15 16 16 17 18 18 18 17 17 17 18 18 19 21 27 23 19 19 19 19 19 19 19 19 23 25 19 18 18 17 20 21 21 20 27 16 16 17 20 20
12 14 15 16 17 17 17 18 16 16 17 15 17 16 17 19 18 22 22 15 16 17 17 17 20 20 22 23 25 20 21 20 18 18 16 17 22 21 28 26 22 23 19
13 15 17 17 17 17 18 16 17 17 17 18 19 17 15 15 14 19 19 13 13 16 15 14 13 19 20 24 19 19 18 21 23 21 19 19 19 22 23 23 27 26 25
14 16 17 18 17 16 17 17 17 17 18 17 17 17 14 14 18 16 20 19 16 16 17 17 16 23 24 23 22 17 18 23 24 23 23 23 22 23 23 26 28 27 25
15 17 18 19 19 17 18 19 18 17 17 17 16 16 15 13 13 17 20 16 16 14 14 18 23 24 27 24 21 20 19 19 18 19 23 25 23 21 25 23 27 27 29
16 18 19 19 19 18 17 15 17 17 17 18 17 17 17 16 15 14 13 14 15 17 17 17 18 23 24 23 23 22 22 21 20 21 21 21 21 20 25 27 25 29 31
16 17 18 17 18 19 17 17 17 17 18 20 22 21 21 20 19 23 23 24 24 23 24 26 24 18 17 18 19 18 19 19 22 22 19 21 22 23 24 25 24 23 33
16 17 18 20 20 19 20 22 19 24 24 22 23 25 27 27 27 25 23 22 21 22 24 27 28 21 18 18 19 18 18 20 22 23 23 22 23 25 24 24 25 26 29
18 20 20 21 20 21 21 22 24 27 31 30 26 25 27 29 26 23 22 23 22 23 27 29 30 27 22 19 19 19 20 20 19 22 22 25 22 24 25 24 26 26 28
21 23 22 21 24 24 26 30 31 32 33 28 28 29 28 29 28 26 24 24 25 21 22 22 23 22 20 19 18 19 18 19 21 21 20 27 20 24 27 25 25 28 31
22 22 22 24 26 27 24 23 25 26 29 32 34 32 31 31 28 28 24 21 21 21 18 19 20 21 21 19 19 18 18 19 20 19 22 22 22 27 28 25 23 31 31
21 24 25 27 24 22 22 25 29 28 30 34 33 31 28 24 23 20 18 18 18 18 18 19 18 20 22 20 21 18 18 19 22 18 21 20 26 24 27 26 23 26 31
23 23 25 25 24 24 26 29 28 29 30 29 29 28 27 27 25 21 19 18 19 19 18 18 18 18 19 20 20 18 19 19 22 19 21 20 24 22 27 26 23 27 31
23 25 26 25 26 26 27 29 27 26 27 27 27 27 24 25 22 21 20 20 21 20 19 19 18 18 17 18 18 18 18 20 21 19 21 19 20 25 25 25 22 26 30
26 28 28 26 25 27 28 27 27 26 26 26 26 26 23 22 21 21 20 20 20 20 19 19 18 19 17 20 18 21 19 18 17 18 19 20 23 26 24 25 23 25 28
28 30 29 27 27 26 27 28 28 28 27 26 25 25 23 22 21 20 20 19 18 18 18 18 19 18 19 18 19 23 21 16 13 21 21 21 23 23 21 23 23 26 31
28 31 31 29 27 27 29 31 31 31 28 26 25 24 22 21 21 21 20 20 17 16 16 16 17 16 16 19 18 20 22 13 17 19 19 18 22 27 25 23 24 26 29
27 32 33 34 31 30 32 33 33 31 28 25 25 24 22 22 21 21 19 17 16 16 15 14 15 15 17 16 18 20 22 14 17 22 18 16 17 25 22 22 23 29 29
Wind_Direction
115 99 70 28 347 344 348 347 342 336 332 326 325 327 330 320 313 307 302 300 295 296 295 293 290 290 281 258 250 246 245 242 246 246 227 249 255 251 245 239 247 251 249
145 103 330 326 319 322 326 326 326 321 319 317 313 312 315 313 303 302 298 291 294 296 295 296 299 293 296 272 250 250 253 242 239 244 248 247 248 253 252 249 245 245 246
226 267 299 301 299 305 311 312 312 310 308 307 305 304 300 299 300 299 299 284 291 289 295 294 297 298 297 295 260 246 255 256 252 242 246 248 253 251 241 238 238 239 234
240 249 267 280 288 297 301 304 303 302 301 302 303 303 300 290 282 291 281 284 290 290 286 287 289 290 288 293 288 268 256 254 250 243 244 247 255 243 233 237 234 237 224
223 236 259 279 290 297 300 302 303 303 302 302 301 300 300 297 295 271 272 278 284 286 286 282 283 269 282 279 278 285 269 259 261 250 236 239 250 240 232 231 231 234 228
210 239 276 294 301 304 304 307 307 306 304 303 301 300 298 295 276 274 278 277 277 279 279 280 275 283 285 275 270 268 276 276 262 257 252 243 247 259 242 235 230 224 204
237 280 296 303 305 305 305 306 305 304 305 304 303 302 298 295 289 287 285 282 279 279 277 275 276 269 271 275 278 270 263 269 270 272 254 239 246 250 249 234 232 228 194
297 304 306 307 306 306 307 306 304 303 300 300 298 298 297 296 295 294 288 281 281 281 278 273 269 268 265 262 265 266 265 262 266 272 270 257 234 249 248 240 240 227 194
306 308 309 309 307 305 307 307 303 306 303 301 298 296 293 293 289 291 298 291 286 280 278 275 272 268 262 255 260 261 259 256 258 266 268 269 260 229 227 226 227 208 201
308 310 311 309 305 304 304 306 305 305 303 299 291 289 288 290 292 294 298 297 294 287 278 276 284 286 271 262 259 258 254 253 253 247 258 272 264 255 231 232 234 229 194
311 310 310 308 303 304 301 300 302 301 297 299 298 297 294 294 288 288 297 296 288 284 279 275 276 272 269 274 268 254 252 246 241 243 248 256 255 257 243 236 222 230 205
314 313 308 304 305 301 298 300 301 301 299 296 296 297 298 291 296 300 304 301 287 277 278 277 272 269 268 271 270 260 252 244 243 244 245 242 241 250 243 239 227 225 209
315 316 315 309 306 303 298 299 300 299 298 298 296 295 295 292 287 292 295 304 312 307 280 267 261 265 268 266 263 262 253 255 251 245 242 239 236 241 242 237 231 231 217
315 315 315 313 307 305 301 300 299 300 301 299 298 296 295 292 293 291 283 281 288 292 296 291 278 267 267 272 263 260 259 255 244 243 241 237 237 227 239 234 232 232 222
314 314 315 315 311 307 300 295 293 293 292 294 293 293 291 288 288 287 286 283 282 279 281 282 283 283 273 264 264 261 253 248 240 234 233 234 232 223 234 234 231 225 223
316 318 313 314 312 308 304 303 298 296 301 300 294 288 287 286 296 295 287 285 278 278 273 272 274 270 265 263 260 255 251 245 237 232 230 228 231 223 226 228 230 222 222
315 313 314 311 309 306 305 301 298 300 304 307 307 298 291 293 298 299 286 286 276 273 269 267 266 264 259 257 252 248 246 239 236 232 232 223 226 224 222 224 224 220 217
317 314 310 308 306 304 298 297 300 304 306 302 305 308 303 303 304 301 296 288 283 270 266 261 259 258 252 252 251 247 250 240 225 233 231 225 225 222 219 221 217 220 216
316 313 310 307 306 311 312 314 314 307 302 302 305 305 306 307 300 298 293 279 274 267 262 259 260 255 252 251 252 247 246 237 221 233 231 230 218 220 220 218 215 214 215
315 311 314 315 315 314 311 313 312 304 300 302 302 301 302 300 297 290 280 271 267 266 263 261 261 257 250 247 246 239 244 240 225 234 229 229 224 217 223 219 210 210 208
319 323 329 331 322 316 313 314 308 304 304 300 297 297 293 293 290 282 275 267 262 262 259 256 257 254 251 243 243 237 239 238 225 232 231 223 232 225 212 217 206 205 196
336 335 332 328 327 324 319 316 315 309 307 304 303 303 303 300 294 286 279 270 268 264 257 254 252 247 246 239 240 235 232 238 219 231 220 230 229 217 217 214 204 200 201
352 346 340 333 330 329 329 330 329 325 317 313 311 310 306 299 291 286 282 277 273 269 260 252 251 245 243 239 240 225 218 233 233 229 224 228 229 217 217 208 202 189 203
357 352 348 343 340 340 341 342 341 336 329 322 318 314 310 304 298 293 288 281 275 270 263 251 249 241 247 233 235 223 218 216 238 227 222 225 224 224 215 207 198 193 197
1 1 360 356 353 352 351 350 346 342 336 330 326 322 318 311 305 299 293 289 279 273 263 254 244 243 239 231 228 222 209 230 228 218 217 220 220 211 206 203 198 189 195
4 6 6 6 3 360 357 354 352 348 343 338 335 330 323 317 313 308 302 289 279 271 264 252 240 235 220 230 227 216 209 214 220 204 209 191 200 197 200 193 186 188 185